Alicante, Spain

10:18 PM CET on February 25, 2017 (GMT +0100)
Alicante

Weather History for LEAL - November, 2012

Change the Weather History Date:

Saturday, November 17, 2012

  Actual Average Record
Temperature  
Mean Temperature 64 °F -  
Max Temperature 68 °F 62 °F 75 °F (1997)
Min Temperature 59 °F 46 °F 33 °F (2004)
Degree Days  
Heating Degree Days 2    
Growing Degree Days 14 (Base 50)    
Moisture  
Dew Point 60 °F    
Average Humidity 88    
Maximum Humidity 100    
Minimum Humidity 60    
Precipitation  
Precipitation 0.00 in - - ()
Sea Level Pressure  
Sea Level Pressure 29.82 in    
Wind  
Wind Speed 4 mph ()    
Max Wind Speed 7 mph    
Max Gust Speed -    
Visibility 6.5 miles    
Events Rain    
Averages and records for this station are not official NWS values.
T = Trace of Precipitation, MM = Missing Value Source: Averaged Metar Reports

Daily Weather History Graph

Daily Weather History Graph

Search for Another Location

Airport or City:

Trip Planner

Search our weather history database for the weather conditions in past years. The results will help you decide how hot, cold, wet, or windy it might be!

Date:

Astronomy

Nov. 17, 2012 Rise Set
Actual Time 7:45 AM CET 5:48 PM CET
Civil Twilight 7:17 AM CET 6:16 PM CET
Nautical Twilight 6:45 AM CET 6:48 PM CET
Astronomical Twilight 6:14 AM CET 7:19 PM CET
Moon 11:18 AM CET (11/17) 9:40 PM CET (11/17)
Length of Visible Light 10h 58m
Length of Day
10h 02m
Waxing Crescent, 18% of the Moon is Illuminated
Nov 17
Waxing Crescent
Nov 20
First Quarter
Nov 28
Full
Dec 6
Last Quarter
Dec 13
New

Hourly Weather History & Observations

Time (CET) Temp. Dew Point Humidity Pressure Visibility Wind Dir Wind Speed Gust Speed Precip Events Conditions
12:00 AM 60.8 °F 57.2 °F 88% 29.95 in 5.6 mi North 5.8 mph - N/A   Mostly Cloudy
12:30 AM 60.8 °F 57.2 °F 88% 29.95 in 5.6 mi North 4.6 mph - N/A   Mostly Cloudy
1:00 AM 61 °F 55 °F 76% 29.96 in 6 mi North 5.8 mph - -   Overcast
1:00 AM 60.8 °F 57.2 °F 88% 29.95 in 5.6 mi North 4.6 mph - N/A   Mostly Cloudy
1:30 AM 62.6 °F 59.0 °F 88% 29.95 in 6.2 mi North 3.5 mph - N/A   Mostly Cloudy
2:00 AM 60.8 °F 57.2 °F 88% 29.92 in 6.2 mi North 4.6 mph - N/A   Scattered Clouds
2:30 AM 60.8 °F 57.2 °F 88% 29.92 in 6.2 mi North 3.5 mph - N/A   Scattered Clouds
3:00 AM 60.8 °F 57.2 °F 88% 29.92 in 6.2 mi Variable 2.3 mph - N/A   Mostly Cloudy
3:30 AM 60.8 °F 57.2 °F 88% 29.89 in 6.2 mi North 5.8 mph - N/A   Mostly Cloudy
4:00 AM 60.8 °F 57.2 °F 88% 29.89 in 6.2 mi North 4.6 mph - N/A   Mostly Cloudy
4:30 AM 60.8 °F 57.2 °F 88% 29.89 in 6.2 mi North 4.6 mph - N/A   Mostly Cloudy
5:00 AM 60.8 °F 59.0 °F 94% 29.86 in 6.2 mi North 4.6 mph - N/A   Mostly Cloudy
5:30 AM 60.8 °F 59.0 °F 94% 29.86 in 6.2 mi North 5.8 mph - N/A   Mostly Cloudy
6:00 AM 60.8 °F 59.0 °F 94% 29.86 in 6.2 mi North 5.8 mph - N/A   Scattered Clouds
6:30 AM 60.8 °F 59.0 °F 94% 29.86 in 6.2 mi North 4.6 mph - N/A   Scattered Clouds
7:00 AM 61 °F 57 °F 81% 29.87 in 9 mi North 4.6 mph - -   Overcast
7:00 AM 60.8 °F 59.0 °F 94% 29.86 in 6.2 mi North 4.6 mph - N/A   Partly Cloudy
7:30 AM 60.8 °F 59.0 °F 94% 29.86 in 6.2 mi North 4.6 mph - N/A   Partly Cloudy
8:00 AM 60.8 °F 59.0 °F 94% 29.86 in 6.2 mi NNW 3.5 mph - N/A   Partly Cloudy
8:30 AM 60.8 °F 59.0 °F 94% 29.86 in 6.2 mi Variable 2.3 mph - N/A   Mostly Cloudy
9:00 AM 62.6 °F 59.0 °F 88% 29.86 in 6.2 mi North 3.5 mph - N/A   Scattered Clouds
9:30 AM 62.6 °F 59.0 °F 88% 29.86 in 6.2 mi North 5.8 mph - N/A   Scattered Clouds
10:00 AM 64.4 °F 59.0 °F 83% 29.83 in 6.2 mi North 5.8 mph - N/A   Partly Cloudy
10:30 AM 66.2 °F 60.8 °F 83% 29.86 in 6.2 mi NNE 4.6 mph - N/A   Partly Cloudy
11:00 AM 66.2 °F 60.8 °F 83% 29.83 in 6.2 mi NE 6.9 mph - N/A   Scattered Clouds
11:30 AM 66.2 °F 60.8 °F 83% 29.83 in 6.2 mi ENE 6.9 mph - N/A   Scattered Clouds
12:00 PM 68.0 °F 60.8 °F 78% 29.83 in 6.2 mi ENE 6.9 mph - N/A   Scattered Clouds
12:30 PM 68.0 °F 59.0 °F 73% 29.80 in 6.2 mi ENE 4.6 mph - N/A   Scattered Clouds
1:00 PM 68 °F 57 °F 60% 29.81 in 12 mi ENE 4.6 mph - -   Partly Cloudy
1:00 PM 68.0 °F 60.8 °F 78% 29.80 in 6.2 mi ENE 3.5 mph - N/A   Scattered Clouds
1:30 PM 68.0 °F 60.8 °F 78% 29.77 in 6.2 mi East 5.8 mph - N/A   Scattered Clouds
2:00 PM 68.0 °F 60.8 °F 78% 29.77 in 6.2 mi East 4.6 mph - N/A   Scattered Clouds
2:30 PM 66.2 °F 60.8 °F 83% 29.77 in 6.2 mi East 4.6 mph - N/A   Partly Cloudy
3:00 PM 66.2 °F 60.8 °F 83% 29.74 in 6.2 mi East 3.5 mph - N/A   Partly Cloudy
3:30 PM 66.2 °F 60.8 °F 83% 29.74 in 6.2 mi Variable 2.3 mph - N/A   Partly Cloudy
4:00 PM 66.2 °F 60.8 °F 83% 29.74 in 6.2 mi East 3.5 mph - N/A   Partly Cloudy
4:30 PM 66.2 °F 62.6 °F 88% 29.74 in 6.2 mi East 6.9 mph - N/A   Partly Cloudy
5:00 PM 64.4 °F 62.6 °F 94% 29.74 in 6.2 mi ENE 6.9 mph - N/A   Partly Cloudy
5:30 PM 64.4 °F 62.6 °F 94% 29.74 in 6.2 mi ENE 4.6 mph - N/A   Partly Cloudy
6:00 PM 62.6 °F 60.8 °F 94% 29.74 in 6.2 mi Variable 2.3 mph - N/A   Partly Cloudy
6:30 PM 64.4 °F 62.6 °F 94% 29.74 in 6.2 mi Variable 2.3 mph - N/A   Scattered Clouds
7:00 PM 63 °F 59 °F 83% 29.75 in 16 mi NNE 2.3 mph - -   Partly Cloudy
7:00 PM 64.4 °F 62.6 °F 94% 29.74 in 6.2 mi Variable 2.3 mph - N/A   Scattered Clouds
7:30 PM 62.6 °F 62.6 °F 100% 29.74 in 6.2 mi NE 3.5 mph - N/A   Partly Cloudy
8:00 PM 62.6 °F 62.6 °F 100% 29.74 in 6.2 mi Variable 1.2 mph - N/A   Partly Cloudy
8:30 PM 62.6 °F 62.6 °F 100% 29.74 in 6.2 mi Calm Calm - N/A   Partly Cloudy
9:00 PM 62.6 °F 62.6 °F 100% 29.74 in 6.2 mi North 4.6 mph - N/A Rain Light Rain
9:30 PM 62.6 °F 60.8 °F 94% 29.74 in 6.2 mi Calm Calm - N/A   Scattered Clouds
10:00 PM 60.8 °F 60.8 °F 100% 29.74 in 6.2 mi Calm Calm - N/A   Partly Cloudy
10:30 PM 60.8 °F 60.8 °F 100% 29.74 in 6.2 mi Variable 1.2 mph - N/A   Partly Cloudy
11:30 PM 60.8 °F 60.8 °F 100% 29.74 in 5.6 mi Calm Calm - N/A Rain Light Rain